カタログに戻る

SL-8 DEB

運用中PO
NORAD 12404·DEBRIS·🇷🇺 Russia

打ち上げ Mar 17, 1980 から Plesetsk Cosmodrome

Loading…

次のパス (今後24時間)

TLE

最新Source: Space-Track

元期: Sep 14, 2026, 14:10 UTC

1 12404U 80022C   26257.59086483  .00003922  00000-0  75914-3 0  9993
2 12404  82.9043 127.7592 0008789 107.3988 252.8179 14.63120306380236

AllMySatでSL-8 DEBをリアルタイム追跡

Download on the App Store